Marco Island Airport, FL

9:56 PM EDT on October 20, 2017 (GMT -0400)
Marco Island

Weather History for KMKY - June, 2013

Change the Weather History Date:

Thursday, June 6, 2013

  Actual Average (KAPF) Record (KAPF)
Temperature  
Mean Temperature 78 °F -  
Max Temperature 82 °F 90 °F 98 °F (1985)
Min Temperature 73 °F 70 °F 64 °F (1955)
Cooling Degree Days 12    
Growing Degree Days 28 (Base 50)    
Moisture  
Dew Point 65 °F    
Average Humidity 67    
Maximum Humidity 73    
Minimum Humidity 57    
Precipitation  
Precipitation 1.29 in - - ()
Sea Level Pressure  
Sea Level Pressure 29.82 in    
Wind  
Wind Speed 11 mph ()    
Max Wind Speed 21 mph    
Max Gust Speed 30 mph    
Visibility 9.4 miles    
Events Thunderstorm    
Averages and records for this station are not official NWS values.
T = Trace of Precipitation, MM = Missing Value Source: Averaged Metar Reports

Daily Weather History Graph

Daily Weather History Graph

Search for Another Location

Airport or City:

Trip Planner

Search our weather history database for the weather conditions in past years. The results will help you decide how hot, cold, wet, or windy it might be!

Date:

Astronomy

Jun. 06, 2013 Rise Set
Actual Time 6:34 AM EDT 8:16 PM EDT
Civil Twilight 6:08 AM EDT 8:42 PM EDT
Nautical Twilight 5:37 AM EDT 9:13 PM EDT
Astronomical Twilight 5:04 AM EDT 9:46 PM EDT
Moon 5:05 AM EDT (6/6) 6:44 PM EDT (6/6)
Length of Visible Light 14h 34m
Length of Day
13h 42m
Waning Crescent, 4% of the Moon is Illuminated
Jun 6
Waning Crescent
Jun 8
New
Jun 16
First Quarter
Jun 23
Full
Jun 30
Last Quarter

Hourly Weather History & Observations

Time (EDT) Temp. Heat Index Dew Point Humidity Pressure Visibility Wind Dir Wind Speed Gust Speed Precip Events Conditions
12:15 AM 75.2 °F - 66.2 °F 73% 29.86 in 8.0 mi East 10.4 mph - 0.02 in Thunderstorm Mostly Cloudy
12:35 AM 75.2 °F - 66.2 °F 73% 29.88 in 9.0 mi ESE 10.4 mph - 0.07 in   Overcast
12:55 AM 75.2 °F - 66.2 °F 73% 29.87 in 5.0 mi SE 12.7 mph 17.3 mph 0.18 in   Overcast
1:15 AM 75.2 °F - 66.2 °F 73% 29.86 in 10.0 mi SE 20.7 mph 28.8 mph 0.11 in   Overcast
1:35 AM 75.2 °F - 62.6 °F 65% 29.84 in 10.0 mi ESE 15.0 mph 24.2 mph 0.13 in   Mostly Cloudy
1:55 AM 75.2 °F - 64.4 °F 69% 29.84 in 10.0 mi ESE 10.4 mph - 0.14 in   Overcast
2:15 AM 75.2 °F - 64.4 °F 69% 29.84 in 10.0 mi SE 9.2 mph - 0.01 in   Overcast
2:35 AM 75.2 °F - 64.4 °F 69% 29.83 in 10.0 mi ESE 9.2 mph - 0.04 in   Overcast
2:55 AM 75.2 °F - 64.4 °F 69% 29.83 in 3.0 mi South 4.6 mph 17.3 mph 0.41 in   Overcast
3:15 AM 75.2 °F - 64.4 °F 69% 29.83 in 10.0 mi SSE 9.2 mph - 0.04 in   Overcast
3:35 AM 75.2 °F - 64.4 °F 69% 29.83 in 9.0 mi SSE 10.4 mph - 0.11 in   Overcast
3:55 AM 75.2 °F - 64.4 °F 69% 29.83 in 8.0 mi SSE 10.4 mph - 0.21 in   Overcast
4:15 AM 75.2 °F - 64.4 °F 69% 29.82 in 9.0 mi SE 12.7 mph 17.3 mph 0.01 in   Mostly Cloudy
4:35 AM 75.2 °F - 64.4 °F 69% 29.82 in 10.0 mi SE 10.4 mph - 0.02 in   Overcast
4:55 AM 75.2 °F - 64.4 °F 69% 29.81 in 10.0 mi SE 13.8 mph 21.9 mph 0.02 in   Overcast
5:15 AM 75.2 °F - 64.4 °F 69% 29.80 in 10.0 mi SE 11.5 mph - N/A   Overcast
5:35 AM 75.2 °F - 64.4 °F 69% 29.79 in 10.0 mi ESE 12.7 mph - N/A   Mostly Cloudy
5:55 AM 75.2 °F - 64.4 °F 69% 29.79 in 10.0 mi ESE 12.7 mph 16.1 mph N/A   Mostly Cloudy
6:15 AM 73.4 °F - 64.4 °F 73% 29.78 in 10.0 mi ESE 11.5 mph 18.4 mph N/A   Mostly Cloudy
6:35 AM 73.4 °F - 62.6 °F 69% 29.78 in 10.0 mi ESE 11.5 mph - N/A   Partly Cloudy
6:55 AM 73.4 °F - 62.6 °F 69% 29.77 in 10.0 mi ESE 10.4 mph - N/A   Scattered Clouds
7:15 AM 73.4 °F - 62.6 °F 69% 29.79 in 10.0 mi ESE 9.2 mph - N/A   Mostly Cloudy
7:35 AM 75.2 °F - 64.4 °F 69% 29.78 in 9.0 mi ESE 10.4 mph - 0.03 in   Mostly Cloudy
7:55 AM 75.2 °F - 64.4 °F 69% 29.79 in 10.0 mi ESE 9.2 mph - 0.03 in   Overcast
8:15 AM 75.2 °F - 64.4 °F 69% 29.80 in 10.0 mi ESE 6.9 mph - N/A   Mostly Cloudy
8:35 AM 75.2 °F - 64.4 °F 69% 29.81 in 10.0 mi SE 3.5 mph - N/A   Overcast
8:55 AM 78.8 °F - 68.0 °F 69% 29.82 in 9.0 mi South 13.8 mph 20.7 mph N/A   Overcast
9:15 AM 80.6 °F 83.2 °F 68.0 °F 65% 29.82 in 10.0 mi South 13.8 mph 19.6 mph N/A   Overcast
9:35 AM 80.6 °F 83.2 °F 68.0 °F 65% 29.82 in 10.0 mi South 17.3 mph 20.7 mph N/A   Overcast
9:55 AM 80.6 °F 83.9 °F 69.8 °F 70% 29.83 in 10.0 mi South 15.0 mph 24.2 mph N/A   Overcast
10:15 AM 80.6 °F 83.2 °F 68.0 °F 65% 29.84 in 10.0 mi South 17.3 mph 23.0 mph N/A   Overcast
10:35 AM 80.6 °F 83.2 °F 68.0 °F 65% 29.84 in 10.0 mi South 12.7 mph 23.0 mph N/A   Overcast
10:55 AM 80.6 °F 83.2 °F 68.0 °F 65% 29.83 in 10.0 mi South 18.4 mph 25.3 mph N/A   Mostly Cloudy
11:15 AM 82.4 °F 85.4 °F 68.0 °F 62% 29.83 in 10.0 mi South 13.8 mph 23.0 mph N/A   Overcast
11:35 AM 82.4 °F 85.4 °F 68.0 °F 62% 29.83 in 9.0 mi South 12.7 mph 21.9 mph N/A   Mostly Cloudy
11:55 AM 82.4 °F 86.3 °F 69.8 °F 66% 29.83 in 10.0 mi South 19.6 mph 26.5 mph N/A   Overcast
12:15 PM 82.4 °F 86.3 °F 69.8 °F 66% 29.83 in 10.0 mi South 16.1 mph 25.3 mph N/A   Overcast
12:35 PM 82.4 °F 86.3 °F 69.8 °F 66% 29.82 in 7.0 mi South 13.8 mph 23.0 mph N/A   Overcast
12:55 PM 82.4 °F 86.3 °F 69.8 °F 66% 29.82 in 9.0 mi South 12.7 mph 21.9 mph N/A   Overcast
1:15 PM 82.4 °F 86.3 °F 69.8 °F 66% 29.83 in 9.0 mi South 12.7 mph 24.2 mph N/A   Overcast
1:35 PM 82.4 °F 86.3 °F 69.8 °F 66% 29.83 in 10.0 mi South 17.3 mph 26.5 mph N/A   Mostly Cloudy
1:55 PM 82.4 °F 86.3 °F 69.8 °F 66% 29.82 in 10.0 mi South 16.1 mph 28.8 mph N/A   Overcast
2:15 PM 82.4 °F 86.3 °F 69.8 °F 66% 29.81 in 10.0 mi South 17.3 mph 25.3 mph N/A   Overcast
2:35 PM 82.4 °F 86.3 °F 69.8 °F 66% 29.80 in 10.0 mi South 16.1 mph 28.8 mph N/A Thunderstorm Overcast
2:55 PM 73.4 °F - 62.6 °F 69% 29.85 in 5.0 mi SW 13.8 mph 21.9 mph 0.25 in Thunderstorm Overcast
3:15 PM 73.4 °F - 62.6 °F 69% 29.84 in 9.0 mi WSW 12.7 mph 20.7 mph N/A   Overcast
3:35 PM 73.4 °F - 62.6 °F 69% 29.82 in 10.0 mi SW 11.5 mph 20.7 mph N/A   Overcast
3:55 PM 73.4 °F - 62.6 °F 69% 29.82 in 10.0 mi SW 16.1 mph 23.0 mph N/A   Overcast
4:15 PM 75.2 °F - 62.6 °F 65% 29.81 in 10.0 mi SW 11.5 mph 21.9 mph N/A   Mostly Cloudy
4:35 PM 78.8 °F - 62.6 °F 57% 29.80 in 10.0 mi SW 20.7 mph 29.9 mph N/A   Scattered Clouds
4:55 PM 75.2 °F - 62.6 °F 65% 29.81 in 10.0 mi SSW 17.3 mph 25.3 mph 0.01 in   Mostly Cloudy
5:15 PM 75.2 °F - 62.6 °F 65% 29.80 in 9.0 mi SSW 13.8 mph 21.9 mph 0.01 in   Overcast
5:35 PM 75.2 °F - 62.6 °F 65% 29.79 in 7.0 mi SSW 9.2 mph 18.4 mph 0.01 in   Mostly Cloudy
5:55 PM 75.2 °F - 64.4 °F 69% 29.79 in 9.0 mi SW 6.9 mph - 0.01 in   Partly Cloudy
6:15 PM 77.0 °F - 64.4 °F 65% 29.79 in 10.0 mi WSW 9.2 mph - N/A   Mostly Cloudy
6:35 PM 77.0 °F - 64.4 °F 65% 29.78 in 10.0 mi SW 13.8 mph 23.0 mph N/A   Scattered Clouds
6:55 PM 75.2 °F - 64.4 °F 69% 29.78 in 7.0 mi WSW 15.0 mph 28.8 mph 0.02 in   Mostly Cloudy
7:15 PM 73.4 °F - 62.6 °F 69% 29.79 in 9.0 mi SW 12.7 mph 23.0 mph 0.01 in   Overcast
7:35 PM 73.4 °F - 62.6 °F 69% 29.80 in 10.0 mi SW 12.7 mph 18.4 mph 0.01 in   Mostly Cloudy
7:55 PM 73.4 °F - 62.6 °F 69% 29.80 in 10.0 mi SW 8.1 mph 16.1 mph 0.01 in   Mostly Cloudy
8:15 PM 75.2 °F - 62.6 °F 65% 29.81 in 10.0 mi SSW 13.8 mph 20.7 mph N/A   Partly Cloudy
8:35 PM 75.2 °F - 62.6 °F 65% 29.81 in 10.0 mi SSW 12.7 mph 16.1 mph N/A   Clear
8:55 PM 75.2 °F - 62.6 °F 65% 29.82 in 10.0 mi SSW 10.4 mph 20.7 mph N/A   Clear
9:15 PM 75.2 °F - 62.6 °F 65% 29.83 in 10.0 mi SSW 8.1 mph - N/A   Clear
9:35 PM 75.2 °F - 62.6 °F 65% 29.83 in 10.0 mi SSW 6.9 mph - N/A   Clear
9:55 PM 75.2 °F - 62.6 °F 65% 29.83 in 10.0 mi SSW 10.4 mph - N/A   Clear
10:15 PM 77.0 °F - 64.4 °F 65% 29.83 in 10.0 mi SSW 9.2 mph - N/A   Partly Cloudy
10:35 PM 77.0 °F - 64.4 °F 65% 29.84 in 10.0 mi SSW 9.2 mph - N/A   Clear
10:55 PM 77.0 °F - 64.4 °F 65% 29.84 in 10.0 mi SSW 5.8 mph - N/A   Clear
11:15 PM 75.2 °F - 64.4 °F 69% 29.85 in 10.0 mi SW 4.6 mph - N/A   Clear
11:35 PM 75.2 °F - 64.4 °F 69% 29.85 in 10.0 mi SW 4.6 mph - N/A   Scattered Clouds
11:55 PM 75.2 °F - 64.4 °F 69% 29.85 in 10.0 mi SW 5.8 mph - N/A   Mostly Cloudy